Regional Weather Roundup
Issued by NWS

Home | Current Version | Previous Version | Graphics & Text | Print | Product List | Glossary On
Versions: 1 2 3 4 5 6 7 8 9 10 11 12 13 14 15 16 17 18 19 20 21 22 23 24 25 26 27 28 29 30 31 32 33 34 35 36 37 38 39 40 41 42 43 44 45 46 47 48 49 50
000
ASUS45 KBOI 240010
RWRID

IDAHO REGIONAL WEATHER ROUNDUP
NATIONAL WEATHER SERVICE BOISE ID
600 PM MDT SAT MAY 23 2015

NOTE: "FAIR" INDICATES FEW OR NO CLOUDS BELOW 12000 FEET
WITH NO SIGNIFICANT WEATHER AND/OR OBSTRUCTIONS TO VISIBILITY

IDZ012-014-240100-
SOUTHWEST IDAHO


CITY           SKY/WX    TMP DP  RH WIND       PRES   REMARKS
BOISE          PTSUNNY   68  54  60 SE13      29.83F THUNDER
CALDWELL       PTSUNNY   81  46  30 NW15G22   29.82F
MOUNTAIN HOME  CLOUDY    72  50  44 NW22      29.82F
$$

IDZ016-017-240100-
SOUTHCENTRAL IDAHO


CITY           SKY/WX    TMP DP  RH WIND       PRES   REMARKS
BURLEY         LGT RAIN  52  48  86 S5        29.92F
JEROME         CLOUDY    60  48  64 E20G29    29.91R
TWIN FALLS     CLOUDY    64  48  56 E13       29.89R
$$

IDZ019>023-240100-
SOUTHEAST IDAHO


CITY           SKY/WX    TMP DP  RH WIND       PRES   REMARKS
IDAHO FALLS    CLOUDY    51  49  92 SW6       29.97S
POCATELLO      RAIN      53  52  96 NE7       29.95S
REXBURG        CLOUDY    52  45  77 S7        29.98R
$$

IDZ006-010-011-018-031-032-240100-
CENTRAL IDAHO MOUNTAINS


CITY           SKY/WX    TMP DP  RH WIND       PRES   REMARKS
MCCALL         MOSUNNY   64  40  41 N20G28    29.93S
HAILEY         PTSUNNY   61  48  63 SE7       29.92S
STANLEY          N/A     56  34  43 NE9G20    30.00R
SALMON         PTSUNNY   64  39  39 E13G20    29.93R
CHALLIS        PTSUNNY   64  43  46 NW12      29.94R
$$

IDZ002-004-006-007-026-240100-
NORTHERN IDAHO


CITY           SKY/WX    TMP DP  RH WIND       PRES   REMARKS
LEWISTON       SUNNY     78  52  40 NW14      29.92F
LOWELL           N/A     59  56  89 CALM      29.95R
COEUR D`ALENE  MOSUNNY   82  34  17 N18       29.91F
MULLAN PASS    SUNNY     62  33  33 VRB5      30.09F
$$


USA.gov is the U.S. government's official web portal to all federal, state and local government web resources and services.